Location: LDNL
(36.4545°S, 141.6685°E)
Time: 02:54:21
(UTC+10:00)

Courier 1B Rocket - Pass Details

Date: 29 May 2024
Orbit: 920 x 1201 km, 28.3° (Epoch: 14 June)

Event Time Altitude Azimuth Distance (km) Brightness Sun altitude
Exits shadow 03:12:21 13° 69° (ENE) 2,911 7.8 -52.0°
Drops below altitude 10° 03:12:58 10° 70° (ENE) 3,106 8.0 -51.9°
Sets 03:15:59 0° 76° (ENE) 4,088 8.8 -51.3°
